Delta, CO

12:48 PM MST on November 20, 2017 (GMT -0700)
Delta

Weather History for KAJZ - May, 2014

Change the Weather History Date:

Tuesday, May 13, 2014

  Actual Average (KMTJ) Record (KMTJ)
Temperature  
Mean Temperature 46 °F -  
Max Temperature 58 °F 72 °F 84 °F (2006)
Min Temperature 35 °F 40 °F 33 °F (2000)
Degree Days  
Heating Degree Days 18    
Moisture  
Dew Point 28 °F    
Average Humidity 53    
Maximum Humidity 90    
Minimum Humidity 19    
Precipitation  
Precipitation 0.00 in - - ()
Sea Level Pressure  
Sea Level Pressure 30.40 in    
Wind  
Wind Speed 5 mph (North)    
Max Wind Speed 15 mph    
Max Gust Speed 23 mph    
Visibility 10 miles    
Events      
Averages and records for this station are not official NWS values.
T = Trace of Precipitation, MM = Missing Value Source: NWS Daily Summary

Daily Weather History Graph

Daily Weather History Graph

Search for Another Location

Airport or City:

Trip Planner

Search our weather history database for the weather conditions in past years. The results will help you decide how hot, cold, wet, or windy it might be!

Date:

Astronomy

May. 13, 2014 Rise Set
Actual Time 6:01 AM MDT 8:15 PM MDT
Civil Twilight 5:31 AM MDT 8:45 PM MDT
Nautical Twilight 4:55 AM MDT 9:22 PM MDT
Astronomical Twilight 4:15 AM MDT 10:02 PM MDT
Moon 7:21 PM MDT (5/13) 5:19 AM MDT (5/13)
Length of Visible Light 15h 13m
Length of Day
14h 14m
Waxing Gibbous, 99% of the Moon is Illuminated
May 13
Waxing Gibbous
May 14
Full
May 21
Last Quarter
May 28
New
Jun 5
First Quarter

Hourly Weather History & Observations

Time (MDT) Temp. Windchill Dew Point Humidity Pressure Visibility Wind Dir Wind Speed Gust Speed Precip Events Conditions
12:15 AM 41.5 °F 39.6 °F 36.5 °F 82% 30.28 in 10.0 mi ENE 3.5 mph - N/A   Scattered Clouds
12:35 AM 40.6 °F 36.7 °F 36.5 °F 85% 30.28 in 10.0 mi NE 5.8 mph - N/A   Scattered Clouds
12:55 AM 41.0 °F 38.0 °F 36.7 °F 85% 30.28 in 10.0 mi NE 4.6 mph - N/A   Mostly Cloudy
1:35 AM 40.1 °F 38.0 °F 36.5 °F 87% 30.28 in 10.0 mi North 3.5 mph - N/A   Clear
1:55 AM 39.6 °F - 36.1 °F 88% 30.30 in 10.0 mi Calm Calm - N/A   Clear
2:15 AM 38.7 °F - 35.6 °F 89% 30.30 in 10.0 mi Calm Calm - N/A   Scattered Clouds
2:35 AM 38.3 °F 34.8 °F 34.9 °F 87% 30.30 in 10.0 mi ENE 4.6 mph - N/A   Scattered Clouds
2:55 AM 36.7 °F - 34.0 °F 90% 30.30 in 10.0 mi Calm Calm - N/A   Clear
3:15 AM 38.1 °F - 33.4 °F 83% 30.31 in 10.0 mi Calm Calm - N/A   Clear
3:35 AM 36.5 °F 31.0 °F 33.3 °F 88% 30.32 in 10.0 mi ENE 6.9 mph - N/A   Scattered Clouds
3:55 AM 36.5 °F - 33.8 °F 90% 30.32 in 10.0 mi Calm Calm - N/A   Mostly Cloudy
4:15 AM 36.5 °F - 33.6 °F 89% 30.34 in 10.0 mi Calm Calm - N/A   Scattered Clouds
4:35 AM 36.5 °F 31.8 °F 33.4 °F 89% 30.34 in 10.0 mi NE 5.8 mph - N/A   Mostly Cloudy
4:55 AM 35.6 °F 30.7 °F 32.5 °F 89% 30.35 in 10.0 mi NNE 5.8 mph - N/A   Scattered Clouds
5:15 AM 35.6 °F 29.9 °F 32.0 °F 87% 30.35 in 10.0 mi NNE 6.9 mph - N/A   Clear
5:35 AM 35.1 °F 29.3 °F 31.6 °F 87% 30.36 in 10.0 mi NNE 6.9 mph - N/A   Clear
5:55 AM 35.1 °F 28.6 °F 31.6 °F 87% 30.38 in 10.0 mi NNE 8.1 mph - N/A   Clear
6:15 AM 35.2 °F 29.5 °F 31.6 °F 87% 30.38 in 10.0 mi NNE 6.9 mph - N/A   Clear
7:15 AM 37.4 °F 34.9 °F 32.0 °F 81% 30.41 in 10.0 mi East 3.5 mph - N/A   Clear
7:35 AM 39.2 °F 35.9 °F 32.4 °F 76% 30.42 in 10.0 mi East 4.6 mph - N/A   Scattered Clouds
7:55 AM 38.1 °F - 32.2 °F 79% 30.43 in 10.0 mi Calm Calm - N/A   Scattered Clouds
8:15 AM 39.6 °F - 32.2 °F 75% 30.44 in 10.0 mi Calm Calm - N/A   Clear
8:55 AM 41.7 °F - 31.8 °F 68% 30.45 in 10.0 mi Calm Calm - N/A   Scattered Clouds
10:35 AM 44.8 °F - 29.8 °F 56% 30.45 in 10.0 mi Calm Calm - N/A   Clear
10:55 AM 47.5 °F - 29.5 °F 50% 30.46 in 10.0 mi South 3.5 mph - N/A   Mostly Cloudy
11:35 AM 49.6 °F - 30.9 °F 49% 30.45 in 10.0 mi SSW 6.9 mph - N/A   Clear
11:55 AM 49.3 °F - 28.2 °F 44% 30.45 in 10.0 mi WSW 4.6 mph - N/A   Scattered Clouds
12:15 PM 51.1 °F - 29.3 °F 43% 30.45 in 10.0 mi North 3.5 mph - N/A   Scattered Clouds
12:35 PM 51.3 °F - 29.1 °F 43% 30.45 in 10.0 mi SSW 4.6 mph - N/A   Clear
12:55 PM 52.2 °F - 28.4 °F 40% 30.45 in 10.0 mi WNW 6.9 mph 11.5 mph N/A   Clear
1:15 PM 53.6 °F - 28.4 °F 38% 30.44 in 10.0 mi WSW 11.5 mph 17.3 mph N/A   Clear
1:35 PM 54.0 °F - 26.6 °F 35% 30.44 in 10.0 mi West 9.2 mph 17.3 mph N/A   Clear
1:55 PM 54.0 °F - 26.2 °F 34% 30.44 in 10.0 mi SW 10.4 mph 20.7 mph N/A   Clear
2:15 PM 54.3 °F - 25.0 °F 32% 30.43 in 10.0 mi South 5.8 mph 16.1 mph N/A   Clear
2:35 PM 54.7 °F - 23.4 °F 30% 30.42 in 10.0 mi SW 11.5 mph 23.0 mph N/A   Scattered Clouds
2:55 PM 57.4 °F - 26.1 °F 30% 30.41 in 10.0 mi SW 15.0 mph 21.9 mph N/A   Clear
3:15 PM 56.7 °F - 22.5 °F 27% 30.41 in 10.0 mi SW 4.6 mph 17.3 mph N/A   Mostly Cloudy
3:35 PM 57.7 °F - 23.0 °F 26% 30.40 in 10.0 mi South 11.5 mph 19.6 mph N/A   Mostly Cloudy
3:55 PM 57.0 °F - 22.8 °F 27% 30.40 in 10.0 mi SSE 12.7 mph 19.6 mph N/A   Scattered Clouds
4:15 PM 58.1 °F - 21.4 °F 24% 30.40 in 10.0 mi SE 3.5 mph - N/A   Scattered Clouds
4:35 PM 57.7 °F - 22.3 °F 25% 30.40 in 10.0 mi North 4.6 mph - N/A   Scattered Clouds
4:55 PM 57.9 °F - 14.9 °F 19% 30.40 in 10.0 mi NNE 8.1 mph - N/A   Scattered Clouds
5:15 PM 57.6 °F - 20.5 °F 24% 30.40 in 10.0 mi NNW 12.7 mph 17.3 mph N/A   Clear
5:35 PM 58.5 °F - 20.1 °F 23% 30.41 in 10.0 mi NNW 13.8 mph 18.4 mph N/A   Clear
5:55 PM 57.9 °F - 19.8 °F 23% 30.41 in 10.0 mi NW 11.5 mph - N/A   Clear
6:15 PM 57.6 °F - 20.5 °F 24% 30.40 in 10.0 mi North 9.2 mph - N/A   Clear
6:35 PM 57.4 °F - 18.5 °F 22% 30.40 in 10.0 mi NNW 10.4 mph - N/A   Clear
6:55 PM 56.5 °F - 19.6 °F 24% 30.40 in 10.0 mi North 11.5 mph - N/A   Clear
7:15 PM 55.9 °F - 20.7 °F 25% 30.40 in 10.0 mi NNW 11.5 mph 16.1 mph N/A   Clear
7:35 PM 54.9 °F - 21.0 °F 27% 30.41 in 10.0 mi North 10.4 mph - N/A   Clear
7:55 PM 53.4 °F - 23.0 °F 31% 30.42 in 7.0 mi North 11.5 mph - N/A   Clear
8:15 PM 51.8 °F - 22.8 °F 32% 30.42 in 10.0 mi North 13.8 mph - N/A   Clear
8:55 PM 50.2 °F - 22.8 °F 34% 30.43 in 10.0 mi North 12.7 mph - N/A   Clear
9:15 PM 50.4 °F - 21.6 °F 32% 30.44 in 10.0 mi North 13.8 mph 20.7 mph N/A   Clear
9:35 PM 49.1 °F - 22.3 °F 35% 30.44 in 10.0 mi NNE 12.7 mph - N/A   Clear
9:55 PM 47.8 °F - 24.4 °F 40% 30.45 in 10.0 mi North 9.2 mph - N/A   Clear
10:15 PM 47.1 °F - 24.1 °F 40% 30.46 in 10.0 mi North 8.1 mph - N/A   Clear
10:35 PM 45.7 °F 42.0 °F 26.6 °F 47% 30.48 in 10.0 mi NNE 6.9 mph - N/A   Clear
10:55 PM 44.2 °F 39.7 °F 28.0 °F 53% 30.48 in 10.0 mi North 8.1 mph - N/A   Clear
11:15 PM 44.1 °F 41.5 °F 26.2 °F 50% 30.49 in 10.0 mi SSE 4.6 mph - N/A   Clear
11:35 PM 44.4 °F - 26.8 °F 50% 30.50 in 10.0 mi Calm Calm - N/A   Clear
11:55 PM 43.2 °F 40.5 °F 27.1 °F 53% 30.50 in 10.0 mi ESE 4.6 mph - N/A   Clear